AD5L Weather Reports


Display with metric or nautical units.
time (UTC)temp
F
wind
direction
speed
MPH
gust
MPH
rain 1hr
in
rain 24hr
in
rain mn
in
humidity
%
barometer
mb
20260507122324 56 21 9.0 17.0 0.00 0.00 0.00 94 1018.3
20260507121335 56 331 7.0 13.0 0.00 0.00 0.00 94 1018.3
20260507120326 57 347 6.0 14.0 0.00 0.00 0.00 94 1018.0
20260507115338 57 320 9.0 16.0 0.00 0.00 0.00 94 1017.8
20260507114330 57 18 7.0 13.0 0.00 0.00 0.00 93 1018.1
20260507113337 57 330 6.0 15.0 0.00 0.00 0.00 93 1018.2
20260507112329 57 15 6.0 11.0 0.00 0.00 0.00 93 1018.0
20260507111340 57 351 6.0 12.0 0.00 0.00 0.00 93 1017.9
20260507110330 57 15 8.0 13.0 0.00 0.00 0.00 93 1017.8
20260507105322 57 348 5.0 13.0 0.00 0.00 0.00 93 1017.8
20260507104334 57 6 5.0 9.0 0.00 0.00 0.00 92 1018.1
20260507103345 58 340 5.0 12.0 0.00 0.00 0.00 92 1017.5
20260507102335 58 354 6.0 10.0 0.00 0.00 0.00 92 1017.6
20260507101347 58 3 6.0 10.0 0.00 0.00 0.00 92 1017.6
20260507100338 58 28 5.0 10.0 0.00 0.00 0.00 92 1017.3
20260507095350 58 18 6.0 9.0 0.00 0.00 0.00 92 1017.5
20260507094333 58 19 6.0 11.0 0.00 0.00 0.00 92 1017.7
20260507093324 58 8 6.0 10.0 0.00 0.00 0.00 92 1017.0
20260507092335 58 355 4.0 10.0 0.00 0.00 0.00 92 1017.2
20260507091325 58 314 4.0 12.0 0.00 0.00 0.00 92 1017.0
20260507090337 58 18 6.0 11.0 0.00 0.00 0.00 92 1016.7
20260507085327 58 346 5.0 9.0 0.00 0.00 0.00 92 1016.6
20260507084340 58 2 5.0 7.0 0.00 0.00 0.00 92 1016.8
20260507083331 58 20 3.0 7.0 0.00 0.00 0.00 92 1016.3
20260507082323 58 23 4.0 6.0 0.00 0.00 0.00 92 1016.4
20260507081335 58 25 3.0 6.0 0.00 0.00 0.00 92 1016.4
20260507080326 58 28 4.0 8.0 0.00 0.00 0.00 91 1015.8
20260507075333 58 39 4.0 9.0 0.00 0.00 0.00 91 1016.1
20260507074327 58 14 4.0 11.0 0.00 0.00 0.00 91 1015.9
20260507073337 58 15 5.0 12.0 0.00 0.00 0.00 91 1015.6
20260507072349 58 14 5.0 10.0 0.00 0.00 0.00 90 1015.9
20260507071340 58 37 5.0 11.0 0.00 0.00 0.00 90 1015.8
20260507070322 59 18 3.0 7.0 0.00 0.00 0.00 90 1016.0
20260507065333 59 42 3.0 8.0 0.00 0.00 0.00 89 1015.6
20260507064325 59 19 1.0 6.0 0.00 0.00 0.00 89 1015.8
20260507063337 59 30 4.0 9.0 0.00 0.00 0.00 88 1015.6
20260507062328 59 29 2.0 7.0 0.00 0.00 0.00 88 1016.0
20260507061340 59 20 3.0 8.0 0.00 0.00 0.00 88 1016.0
20260507060331 60 9 3.0 7.0 0.00 0.00 0.00 87 1016.1
20260507055341 60 27 4.0 7.0 0.00 0.00 0.00 87 1015.7
20260507054331 60 31 5.0 11.0 0.00 0.00 0.00 87 1015.8
20260507053341 60 25 5.0 10.0 0.00 0.00 0.00 88 1015.5
20260507052333 60 30 5.0 8.0 0.00 0.00 0.00 88 1015.9
20260507051325 60 18 2.0 7.0 0.00 0.00 0.00 88 1015.9
20260507050332 60 34 4.0 8.0 0.00 0.00 0.00 88 1015.6
20260507045321 60 63 6.0 8.0 0.00 0.00 0.00 87 1015.8
20260507044332 61 5 3.0 10.0 0.00 0.00 0.00 87 1015.6
20260507043343 61 33 6.0 12.0 0.00 0.00 0.00 86 1015.8
20260507042335 61 8 4.0 11.0 0.00 0.00 0.00 86 1015.9
20260507041347 61 28 6.0 9.0 0.00 0.00 0.00 86 1016.0
20260507040337 61 18 2.0 9.0 0.00 0.00 0.00 86 1016.3
20260507035348 61 18 5.0 9.0 0.00 0.00 0.00 86 1015.6
20260507034330 61 345 6.0 10.0 0.00 0.00 0.00 87 1015.7
20260507033323 61 27 4.0 8.0 0.00 0.00 0.00 87 1015.8
20260507032325 61 348 4.0 11.0 0.00 0.00 0.00 88 1015.6
20260507031337 61 337 5.0 10.0 0.00 0.00 0.00 88 1015.5
20260507030327 61 11 5.0 8.0 0.00 0.00 0.00 89 1015.4
20260507025336 61 328 5.0 10.0 0.00 0.00 0.00 89 1015.5
20260507024327 61 326 4.0 9.0 0.00 0.00 0.00 89 1015.6
20260507023338 61 315 3.0 7.0 0.00 0.00 0.00 89 1015.2
20260507022328 61 316 3.0 7.0 0.00 0.00 0.00 89 1015.1
20260507021339 61 330 1.0 5.0 0.00 0.00 0.00 88 1015.2
20260507020330 61 321 4.0 7.0 0.00 0.00 0.00 88 1015.1
20260507015322 61 317 3.0 8.0 0.00 0.00 0.00 88 1014.8
20260507014333 61 357 3.0 6.0 0.00 0.00 0.00 88 1014.7
20260507013325 61 324 4.0 7.0 0.00 0.00 0.00 88 1014.5
20260507012336 61 333 3.0 5.0 0.00 0.00 0.00 88 1014.1
20260507011327 61 326 2.0 7.0 0.00 0.00 0.00 87 1014.3
20260507010338 61 335 5.0 8.0 0.00 0.00 0.00 87 1013.9
20260507005349 61 306 4.0 9.0 0.00 0.00 0.00 87 1013.5
20260507004340 61 320 4.0 7.0 0.00 0.00 0.00 87 1013.9
20260507003349 61 27 4.0 7.0 0.00 0.00 0.00 86 1013.5
20260507002331 61 6 3.0 7.0 0.00 0.00 0.00 87 1013.5
20260507001322 61 8 3.0 7.0 0.00 0.00 0.00 87 1013.4
20260507000336 61 352 6.0 8.0 0.00 0.00 0.00 86 1013.5
20260506235325 61 321 3.0 12.0 0.00 0.00 0.00 86 1013.4
20260506234336 61 333 5.0 12.0 0.00 0.00 0.00 86 1013.3
20260506233327 61 18 4.0 8.0 0.00 0.00 0.00 86 1013.2
20260506232338 61 350 4.0 8.0 0.00 0.00 0.00 87 1013.2
20260506231328 61 339 4.0 9.0 0.00 0.00 0.00 86 1013.7
20260506230336 61 322 5.0 12.0 0.00 0.00 0.00 86 1012.9
20260506225326 62 351 4.0 11.0 0.00 0.00 0.00 86 1012.8
20260506224337 61 335 3.0 12.0 0.00 0.00 0.00 87 1013.3
20260506223328 61 330 5.0 11.0 0.00 0.00 0.00 87 1013.2
20260506222337 60 354 8.0 13.0 0.00 0.00 0.00 88 1012.8
20260506221327 60 323 4.0 12.0 0.00 0.00 0.00 88 1013.1
20260506220338 60 8 9.0 13.0 0.00 0.00 0.00 89 1013.2
20260506215329 60 2 7.0 12.0 0.00 0.00 0.00 88 1013.1
20260506214339 60 350 5.0 12.0 0.00 0.00 0.00 89 1013.1
20260506213351 60 321 7.0 12.0 0.00 0.00 0.00 89 1013.1
20260506212341 60 328 6.0 10.0 0.00 0.00 0.00 87 1013.4
20260506211323 60 325 6.0 11.0 0.00 0.00 0.00 87 1013.4
20260506210332 60 330 8.0 13.0 0.00 0.00 0.00 88 1013.2
20260506205323 60 320 5.0 15.0 0.00 0.00 0.00 87 1013.3
20260506204334 60 307 9.0 14.0 0.00 0.00 0.00 87 1013.4
20260506203324 60 316 6.0 12.0 0.00 0.00 0.00 88 1013.7
20260506202335 60 305 8.0 12.0 0.00 0.00 0.00 86 1013.7
20260506201327 61 335 6.0 15.0 0.00 0.00 0.00 87 1013.3
20260506200336 60 20 7.0 15.0 0.00 0.00 0.00 87 1013.2
20260506195326 61 322 8.0 16.0 0.00 0.00 0.00 87 1013.4
20260506194338 61 348 10.0 17.0 0.00 0.00 0.00 87 1013.3
20260506193329 62 319 7.0 15.0 0.00 0.00 0.00 86 1013.2
20260506192340 63 342 7.0 15.0 0.00 0.00 0.00 85 1013.4
20260506191328 63 321 8.0 14.0 0.00 0.00 0.00 85 1013.4
20260506190336 64 328 5.0 11.0 0.00 0.00 0.00 86 1013.2
20260506185329 65 342 4.0 12.0 0.00 0.00 0.00 87 1013.1
20260506184335 65 318 7.0 14.0 0.00 0.00 0.00 86 1013.0
20260506183326 65 5 9.0 17.0 0.00 0.00 0.00 86 1013.1
20260506182336 68 353 8.0 15.0 0.00 0.00 0.00 82 1013.1
20260506181346 69 327 8.0 12.0 0.00 0.00 0.00 82 1012.9
20260506180337 68 13 5.0 12.0 0.00 0.00 0.00 83 1012.7
20260506175348 68 33 6.0 10.0 0.00 0.00 0.00 84 1012.8
20260506174331 67 338 4.0 8.0 0.00 0.00 0.00 87 1012.6
20260506173322 67 30 4.0 6.0 0.00 0.00 0.00 85 1012.6
20260506172333 66 65 4.0 8.0 0.00 0.00 0.00 87 1012.5
20260506171324 65 61 4.0 9.0 0.00 0.00 0.00 89 1012.4
20260506170335 65 96 4.0 9.0 0.00 0.00 0.00 87 1012.4
20260506165325 64 37 7.0 12.0 0.00 0.00 0.00 89 1012.5
20260506164337 63 80 4.0 8.0 0.00 0.00 0.00 91 1012.5
20260506163328 62 33 5.0 10.0 0.00 0.00 0.00 91 1012.9
20260506162338 61 84 3.0 10.0 0.00 0.00 0.00 95 1013.1
20260506161328 59 60 4.0 12.0 0.00 0.00 0.00 94 1012.8
20260506160337 59 11 8.0 13.0 0.00 0.00 0.00 94 1013.8
20260506155327 60 16 10.0 17.0 0.00 0.00 0.00 95 1014.0
20260506154338 60 350 10.0 18.0 0.00 0.00 0.00 94 1014.3
20260506153328 61 360 5.0 12.0 0.00 0.00 0.00 96 1014.3
20260506152339 61 330 7.0 20.0 0.00 0.00 0.00 95 1013.7
20260506151330 62 329 10.0 16.0 0.00 0.00 0.00 95 1013.8
20260506150341 63 15 7.0 13.0 0.00 0.00 0.00 94 1013.2
20260506145333 63 2 1.0 7.0 0.00 0.00 0.00 95 1012.5
20260506144343 63 13 6.0 18.0 0.00 0.00 0.00 95 1012.1
20260506143325 64 20 10.0 19.0 0.00 0.00 0.00 94 1012.3
20260506142331 65 317 7.0 14.0 0.00 0.00 0.00 94 1011.9
20260506141349 66 313 6.0 12.0 0.00 0.00 0.00 94 1011.4
20260506140331 67 23 2.0 13.0 0.00 0.00 0.00 94 1011.2
20260506135322 68 325 6.0 16.0 0.00 0.00 0.00 93 1011.4
20260506134332 73 11 11.0 17.0 0.00 0.00 0.00 94 1010.9
20260506133323 74 88 1.0 3.0 0.00 0.00 0.00 97 1010.3
20260506132333 74 88 1.0 4.0 0.00 0.00 0.00 97 1010.5
20260506131323 74 96 1.0 3.0 0.00 0.00 0.00 98 1010.4
20260506130335 74 103 0.0 3.0 0.00 0.00 0.00 98 1010.0
20260506125326 74 100 0.0 2.0 0.00 0.00 0.00 98 1009.9
20260506124337 73 140 0.0 1.0 0.00 0.00 0.00 98 1009.8
20260506123330 73 140 0.0 1.0 0.00 0.00 0.00 98 1009.8